Location: La Brionne
(46.1728°N, 1.7849°E)
Time: 20:29:25
(UTC+00:00)

Envisat - Visible Passes

Search period start: 10 April 2026 00:00
Search period end: 20 April 2026 00:00
Orbit: 761 x 762 km, 98.4° (Epoch: 10 April)

Date Brightness Start Highest point End Pass type
(mag) Time Alt. Az. Time Alt. Az. Time Alt. Az.
10 Apr 5.3 01:15:11 10° NE 01:18:09 15° E 01:18:37 15° E visible
10 Apr 2.9 02:52:33 10° N 02:57:37 73° WNW 02:58:44 53° SW visible
10 Apr 5.0 04:33:56 10° NW 04:35:39 12° NW 04:37:22 10° WNW visible
11 Apr 3.5 02:14:48 10° NNE 02:19:47 53° E 02:20:36 47° SE visible
11 Apr 4.3 03:54:27 10° NNW 03:58:21 23° WNW 04:00:43 17° W visible
12 Apr 4.6 01:37:35 10° NE 01:41:43 25° E 01:42:27 24° ESE visible
12 Apr 3.4 03:16:01 10° N 03:20:51 46° WNW 03:22:34 33° WSW visible
13 Apr 5.5 01:01:59 10° ENE 01:03:27 11° E 01:04:17 11° E visible
13 Apr 2.9 02:38:02 10° NNE 02:43:08 85° ESE 02:44:25 52° S visible
13 Apr 4.8 04:18:32 10° NNW 04:21:23 15° WNW 04:24:13 10° W visible
14 Apr 4.0 02:00:28 10° NNE 02:05:13 39° E 02:06:16 35° SE visible
14 Apr 4.0 03:39:39 10° N 03:44:00 29° WNW 03:46:24 20° WSW visible
15 Apr 5.0 01:23:34 10° NE 01:27:05 19° E 01:28:07 18° ESE visible
15 Apr 3.1 03:01:25 10° N 03:06:25 61° WNW 03:08:15 37° SW visible
16 Apr 3.2 02:23:34 10° NNE 02:28:37 64° ESE 02:30:05 44° SSE visible
16 Apr 4.5 04:03:30 10° NNW 04:07:04 20° WNW 04:10:13 12° WSW visible
17 Apr 4.4 01:46:12 10° NE 01:50:37 29° E 01:51:55 26° ESE visible
17 Apr 3.6 03:24:57 10° N 03:29:37 38° WNW 03:32:04 24° WSW visible
18 Apr 5.3 01:09:52 10° ENE 01:12:24 14° E 01:13:46 12° ESE visible
18 Apr 2.9 02:46:51 10° NNE 02:51:57 81° WNW 02:53:54 39° SSW visible
18 Apr 5.0 04:27:50 10° NNW 04:30:04 13° NW 04:32:16 10° W visible
19 Apr 3.7 02:09:11 10° NNE 02:14:05 47° E 02:15:45 34° SSE visible
19 Apr 4.2 03:48:38 10° N 03:52:44 25° WNW 03:55:52 14° WSW visible
